Tracking 35055 objects as of 18-Aug-2026
HD Live streaming from Space Station
objects crossing your sky now

CLOUDCT-PRECURSOR

Track CLOUDCT-PRECURSOR now!
10-day predictions


NORAD ID: 69939
Int'l Code: 2026-156BY
Launch date: July 7, 2026
Source: Germany (GER)
Launch site: AIR FORCE WESTERN TEST RANGE (AFWTR)
Your satellite tracking list
Your tracking list is empty




NASA's NSSDC Master Catalog

Two Line Element Set (TLE):
1 69939U 26156BY  26230.51126085  .00000768  00000-0  80138-4 0  9992
2 69939  97.7530 130.3379 0010529  30.8499 329.3337 14.92564907  6299
Source of the keplerian elements: AFSPC